Weather History for KAHN - November, 2012

Change the Weather History Date:

Saturday, November 17, 2012

  Actual Average Record
Temperature  
Mean Temperature 48 °F 53 °F  
Max Temperature 60 °F 65 °F 84 °F (1958)
Min Temperature 36 °F 42 °F 25 °F (1984)
Degree Days  
Heating Degree Days 17 12  
Month to date heating degree days 212 163  
Since 1 July heating degree days 335 298  
Moisture  
Dew Point 30 °F    
Average Humidity 58    
Maximum Humidity 85    
Minimum Humidity 31    
Precipitation  
Precipitation 0.00 in 0.14 in 2.84 in (1921)
Month to date precipitation 0.91 2.06  
Year to date precipitation 31.45 40.84  
Snow  
Snow 0.00 in 0.00 in 0.00 in (2001)
Month to date snowfall 0.0 0.0  
Since 1 July snowfall 0.0 0.0  
Since 1 September snowfall 0.0 0.0  
Snow Depth -    
Sea Level Pressure  
Sea Level Pressure 30.39 in    
Wind  
Wind Speed 8 mph (NE)    
Max Wind Speed 21 mph    
Max Gust Speed 29 mph    
Visibility 7 miles    
Events      
T = Trace of Precipitation, MM = Missing Value Source: NWS Daily Summary

Daily Weather History Graph

Daily Weather History Graph

Search for Another Location

Airport or City:

Trip Planner

Search our weather history database for the weather conditions in past years. The results will help you decide how hot, cold, wet, or windy it might be!

Date:

Astronomy

Nov. 17, 2012 Rise Set
Actual Time 7:08 AM EST 5:28 PM EST
Civil Twilight 6:41 AM EST 5:55 PM EST
Nautical Twilight 6:11 AM EST 6:25 PM EST
Astronomical Twilight 5:41 AM EST 6:55 PM EST
Moon 10:51 AM EST (11/17) 9:36 PM EST (11/17)
Length of Visible Light 11h 13m
Length of Day
10h 20m
Waxing Crescent, 20% of the Moon is Illuminated
Nov 17
Waxing Crescent
Nov 20
First Quarter
Nov 28
Full
Dec 6
Last Quarter
Dec 13
New

Hourly Weather History & Observations

Time (EST) Temp. Windchill Dew Point Humidity Pressure Visibility Wind Dir Wind Speed Gust Speed Precip Events Conditions
12:51 AM 39.0 °F 36.8 °F 33.1 °F 79% 30.36 in 6.0 mi NE 3.5 mph - N/A   Haze
1:51 AM 37.4 °F 33.8 °F 32.0 °F 81% 30.35 in 6.0 mi NE 4.6 mph - N/A   Haze
2:51 AM 37.9 °F 32.7 °F 33.1 °F 83% 30.36 in 6.0 mi NE 6.9 mph - N/A   Haze
3:51 AM 37.9 °F 33.5 °F 33.1 °F 83% 30.37 in 6.0 mi NE 5.8 mph - N/A   Haze
4:51 AM 37.9 °F 32.7 °F 32.0 °F 79% 30.38 in 6.0 mi NE 6.9 mph - N/A   Haze
5:51 AM 39.0 °F 34.0 °F 33.1 °F 79% 30.39 in 6.0 mi NE 6.9 mph - N/A   Haze
6:51 AM 37.9 °F 32.7 °F 33.1 °F 83% 30.41 in 6.0 mi NE 6.9 mph - N/A   Haze
7:51 AM 39.0 °F 34.8 °F 32.0 °F 76% 30.43 in 5.0 mi NE 5.8 mph - N/A   Haze
8:51 AM 44.1 °F 38.1 °F 32.0 °F 63% 30.44 in 5.0 mi ENE 11.5 mph - N/A   Haze
9:51 AM 50.0 °F - 30.9 °F 48% 30.45 in 6.0 mi ENE 12.7 mph 26.5 mph N/A   Haze
10:51 AM 51.8 °F - 30.2 °F 44% 30.42 in 7.0 mi ENE 17.3 mph 25.3 mph N/A   Clear
11:51 AM 55.0 °F - 28.0 °F 35% 30.42 in 7.0 mi NNE 15.0 mph 20.7 mph N/A   Clear
12:51 PM 57.0 °F - 28.0 °F 33% 30.39 in 7.0 mi NNE 10.4 mph 17.3 mph N/A   Clear
1:51 PM 57.9 °F - 28.9 °F 33% 30.37 in 7.0 mi ENE 9.2 mph 16.1 mph N/A   Clear
2:51 PM 59.0 °F - 28.9 °F 32% 30.35 in 7.0 mi NNE 8.1 mph - N/A   Clear
3:51 PM 57.9 °F - 30.0 °F 35% 30.35 in 7.0 mi ENE 9.2 mph - N/A   Clear
4:51 PM 55.4 °F - 28.4 °F 36% 30.35 in 7.0 mi NE 8.1 mph - N/A   Clear
5:51 PM 48.9 °F - 28.0 °F 44% 30.38 in 9.0 mi NE 3.5 mph - N/A   Clear
6:51 PM 46.9 °F - 28.0 °F 48% 30.39 in 9.0 mi NE 4.6 mph - N/A   Clear
7:51 PM 46.9 °F - 28.0 °F 48% 30.39 in 9.0 mi ENE 8.1 mph - N/A   Clear
8:51 PM 46.0 °F 41.4 °F 27.0 °F 47% 30.41 in 9.0 mi East 9.2 mph - N/A   Clear
9:51 PM 46.0 °F 42.5 °F 27.0 °F 47% 30.41 in 9.0 mi ENE 6.9 mph - N/A   Partly Cloudy
10:51 PM 45.0 °F 41.2 °F 26.1 °F 48% 30.40 in 9.0 mi ENE 6.9 mph - N/A   Clear
11:51 PM 48.0 °F - 26.1 °F 42% 30.39 in 9.0 mi ENE 9.2 mph - N/A   Overcast